Carrollton, GA

4:13 PM EST on December 14, 2019 (GMT -0500)
West Georgia Regional-Gray

Weather History for KCTJ - November, 2019

Change the Weather History Date:

Friday, November 15, 2019

  Actual Average Record
Temperature  
Mean Temperature 41 °F -  
Max Temperature 43 °F 63 °F 76 °F (1955)
Min Temperature 39 °F 37 °F 11 °F (1969)
Degree Days  
Heating Degree Days 24    
Moisture  
Dew Point 38 °F    
Average Humidity 90    
Maximum Humidity 97    
Minimum Humidity 70    
Precipitation  
Precipitation 0.00 in - - ()
Sea Level Pressure  
Sea Level Pressure 30.17 in    
Wind  
Wind Speed 6 mph ()    
Max Wind Speed 13 mph    
Max Gust Speed 20 mph    
Visibility 8.2 miles    
Events Rain    
Averages and records for this station are not official NWS values.
T = Trace of Precipitation, MM = Missing Value Source: Averaged Metar Reports

Daily Weather History Graph

Daily Weather History Graph

Search for Another Location

Airport or City:

Astronomy

Nov. 15, 2019 Rise Set
Actual Time 7:12 AM EST 5:37 PM EST
Civil Twilight 6:45 AM EST 6:04 PM EST
Nautical Twilight 6:15 AM EST 6:34 PM EST
Astronomical Twilight 5:46 AM EST 7:03 PM EST
Moon 8:17 PM EST (11/15) 10:03 AM EST (11/15)
Length of Visible Light 11h 18m
Length of Day
10h 25m
Waning Gibbous, 90% of the Moon is Illuminated
Nov 15
Waning Gibbous
Nov 19
Last Quarter
Nov 26
New
Dec 4
First Quarter
Dec 12
Full

Hourly Weather History & Observations

Time (EST) Temp. Windchill Dew Point Humidity Pressure Visibility Wind Dir Wind Speed Gust Speed Precip Events Conditions
12:15 AM 40.1 °F 38.0 °F 39.2 °F 97% 30.25 in 7.0 mi NNE 3.5 mph - N/A Rain Light Rain
12:35 AM 40.1 °F - 39.2 °F 97% 30.25 in 7.0 mi Calm Calm - N/A Rain Rain
12:55 AM 40.1 °F 38.0 °F 39.4 °F 97% 30.24 in 7.0 mi North 3.5 mph - N/A Rain Rain
1:15 AM 40.1 °F 36.9 °F 39.4 °F 97% 30.23 in 7.0 mi NNE 4.6 mph - N/A Rain Light Rain
1:35 AM 40.1 °F - 39.2 °F 97% 30.24 in 10.0 mi Calm Calm - N/A Rain Light Rain
1:55 AM 40.3 °F 38.2 °F 39.2 °F 96% 30.23 in 10.0 mi NNE 3.5 mph - N/A Rain Rain
2:15 AM 40.1 °F 36.9 °F 38.7 °F 95% 30.23 in 10.0 mi North 4.6 mph - N/A Rain Light Rain
2:35 AM 40.1 °F 36.9 °F 38.3 °F 93% 30.22 in 10.0 mi North 4.6 mph - N/A Rain Rain
3:15 AM 39.9 °F 37.8 °F 38.3 °F 94% 30.21 in 10.0 mi NNE 3.5 mph - N/A Rain Light Rain
3:35 AM 39.7 °F 36.5 °F 38.3 °F 95% 30.20 in 7.0 mi NNE 4.6 mph - N/A Rain Rain
3:55 AM 39.6 °F 34.0 °F 38.5 °F 96% 30.19 in 10.0 mi North 8.1 mph - N/A Rain Rain
4:15 AM 39.6 °F 36.3 °F 38.3 °F 95% 30.19 in 10.0 mi North 4.6 mph - N/A Rain Rain
4:35 AM 39.6 °F 35.4 °F 38.3 °F 95% 30.18 in 7.0 mi North 5.8 mph - N/A Rain Rain
4:55 AM 39.6 °F 34.7 °F 38.1 °F 95% 30.18 in 10.0 mi North 6.9 mph - N/A Rain Light Rain
5:15 AM 39.6 °F 34.7 °F 37.9 °F 94% 30.19 in 10.0 mi North 6.9 mph - N/A Rain Rain
5:35 AM 39.7 °F 36.5 °F 38.3 °F 95% 30.19 in 7.0 mi North 4.6 mph - N/A Rain Rain
5:55 AM 39.7 °F 34.9 °F 38.5 °F 95% 30.18 in 7.0 mi North 6.9 mph - N/A Rain Light Rain
6:15 AM 39.6 °F 35.4 °F 38.5 °F 96% 30.19 in 7.0 mi North 5.8 mph - N/A Rain Light Rain
6:35 AM 39.7 °F 34.9 °F 38.5 °F 95% 30.19 in 10.0 mi NNW 6.9 mph - N/A Rain Rain
6:55 AM 39.7 °F 33.7 °F 38.3 °F 95% 30.20 in 10.0 mi NNW 9.2 mph - N/A Rain Rain
7:15 AM 39.9 °F 33.4 °F 38.1 °F 93% 30.18 in 7.0 mi North 10.4 mph - N/A Rain Light Rain
7:35 AM 39.7 °F 34.3 °F 37.6 °F 92% 30.20 in 10.0 mi North 8.1 mph - N/A   Drizzle
8:15 AM 40.1 °F 34.7 °F 37.6 °F 91% 30.20 in 10.0 mi North 8.1 mph 16.1 mph N/A   Light Drizzle
8:35 AM 40.1 °F 34.7 °F 37.6 °F 91% 30.20 in 10.0 mi North 8.1 mph - N/A Rain Rain
8:55 AM 40.1 °F 33.6 °F 37.8 °F 91% 30.20 in 10.0 mi North 10.4 mph 16.1 mph N/A   Light Drizzle
9:35 AM 40.3 °F 34.9 °F 37.8 °F 91% 30.20 in 10.0 mi North 8.1 mph - N/A   Drizzle
9:55 AM 40.6 °F 34.8 °F 37.9 °F 90% 30.20 in 5.0 mi North 9.2 mph - N/A   Heavy Drizzle
10:15 AM 40.3 °F 34.9 °F 38.5 °F 93% 30.20 in 4.0 mi North 8.1 mph - N/A Rain Heavy Rain
10:35 AM 40.1 °F 34.7 °F 38.7 °F 95% 30.20 in 4.0 mi North 8.1 mph - N/A Rain Rain
10:55 AM 40.3 °F 34.9 °F 38.8 °F 95% 30.20 in 4.0 mi North 8.1 mph - N/A   Heavy Drizzle
11:15 AM 40.5 °F 34.6 °F 39.2 °F 95% 30.20 in 4.0 mi North 9.2 mph - N/A   Heavy Drizzle
11:35 AM 40.5 °F 35.1 °F 39.4 °F 96% 30.19 in 4.0 mi North 8.1 mph - N/A Rain Rain
11:55 AM 40.8 °F 35.6 °F 39.7 °F 96% 30.18 in 3.0 mi North 8.1 mph - N/A Rain Heavy Rain
12:15 PM 41.4 °F 35.7 °F 40.3 °F 96% 30.17 in 3.0 mi North 9.2 mph - N/A Rain Rain
12:35 PM 41.2 °F 35.0 °F 40.1 °F 96% 30.17 in 4.0 mi NNW 10.4 mph - N/A Rain Rain
12:55 PM 41.0 °F 33.9 °F 39.9 °F 96% 30.16 in 4.0 mi North 12.7 mph 19.6 mph N/A Rain Rain
1:15 PM 40.8 °F 35.0 °F 39.6 °F 95% 30.15 in 5.0 mi North 9.2 mph - N/A Rain Rain
1:35 PM 40.8 °F 35.0 °F 39.4 °F 95% 30.15 in 4.0 mi NNW 9.2 mph - N/A Rain Rain
1:55 PM 41.2 °F 36.0 °F 39.7 °F 95% 30.14 in 4.0 mi NNW 8.1 mph - N/A Rain Heavy Rain
2:15 PM 41.5 °F 36.4 °F 40.3 °F 95% 30.13 in 7.0 mi NNW 8.1 mph 16.1 mph N/A Rain Rain
2:35 PM 41.5 °F 35.9 °F 40.1 °F 95% 30.14 in 10.0 mi North 9.2 mph - N/A Rain Rain
2:55 PM 41.4 °F 34.3 °F 39.9 °F 95% 30.14 in 7.0 mi North 12.7 mph - N/A Rain Rain
3:35 PM 41.2 °F 38.2 °F 39.4 °F 93% 30.15 in 7.0 mi NNW 4.6 mph - N/A Rain Light Rain
3:55 PM 41.4 °F 36.2 °F 39.7 °F 94% 30.15 in 10.0 mi North 8.1 mph - N/A Rain Light Rain
4:15 PM 41.2 °F 36.6 °F 39.4 °F 93% 30.14 in 10.0 mi North 6.9 mph - N/A Rain Light Rain
4:35 PM 41.4 °F 37.6 °F 39.6 °F 93% 30.14 in 10.0 mi NNW 5.8 mph - N/A Rain Light Rain
4:55 PM 41.4 °F 37.6 °F 39.4 °F 93% 30.14 in 10.0 mi NNW 5.8 mph - N/A Rain Rain
5:15 PM 41.4 °F 36.8 °F 39.4 °F 93% 30.13 in 10.0 mi North 6.9 mph - N/A Rain Rain
5:35 PM 41.9 °F 37.5 °F 39.2 °F 90% 30.13 in 10.0 mi NNW 6.9 mph - N/A Rain Light Rain
5:55 PM 42.1 °F 38.4 °F 39.2 °F 90% 30.13 in 10.0 mi NNW 5.8 mph - N/A Rain Rain
6:15 PM 42.3 °F 38.6 °F 39.0 °F 88% 30.13 in 10.0 mi NNW 5.8 mph - N/A   Light Drizzle
6:35 PM 42.4 °F 39.6 °F 38.8 °F 87% 30.13 in 10.0 mi NNW 4.6 mph - N/A   Overcast
6:55 PM 42.4 °F 38.8 °F 38.7 °F 86% 30.12 in 10.0 mi NNW 5.8 mph - N/A   Overcast
7:35 PM 43.3 °F 39.2 °F 37.4 °F 80% 30.12 in 10.0 mi NNW 6.9 mph - N/A   Overcast
7:55 PM 43.7 °F 39.1 °F 37.0 °F 77% 30.12 in 10.0 mi NNW 8.1 mph - N/A   Overcast
8:15 PM 43.9 °F 39.3 °F 36.9 °F 76% 30.13 in 10.0 mi NNW 8.1 mph - N/A   Overcast
8:35 PM 43.7 °F 40.3 °F 37.0 °F 77% 30.13 in 10.0 mi NNW 5.8 mph - N/A   Overcast
8:55 PM 43.7 °F 40.3 °F 36.7 °F 76% 30.13 in 10.0 mi NNW 5.8 mph - N/A   Overcast
9:15 PM 43.7 °F 38.1 °F 36.3 °F 75% 30.13 in 10.0 mi NNW 10.4 mph - N/A   Overcast
9:35 PM 43.3 °F 38.6 °F 36.7 °F 77% 30.13 in 10.0 mi NNW 8.1 mph - N/A   Overcast
9:55 PM 43.2 °F 39.0 °F 36.7 °F 78% 30.13 in 10.0 mi North 6.9 mph - N/A   Overcast
10:15 PM 43.0 °F 39.5 °F 36.1 °F 77% 30.14 in 10.0 mi North 5.8 mph - N/A   Mostly Cloudy
10:35 PM 42.6 °F 39.0 °F 35.6 °F 76% 30.13 in 10.0 mi NNW 5.8 mph - N/A   Overcast
10:55 PM 42.1 °F 37.7 °F 35.1 °F 76% 30.13 in 10.0 mi North 6.9 mph - N/A   Overcast
11:35 PM 42.1 °F 37.1 °F 33.6 °F 72% 30.12 in 10.0 mi North 8.1 mph - N/A   Overcast
11:55 PM 42.1 °F 37.7 °F 33.1 °F 70% 30.12 in 10.0 mi North 6.9 mph - N/A   Mostly Cloudy